FW2343 Weather Reports


Display with metric or nautical units.
time (UTC)temp
F
wind
direction
speed
MPH
gust
MPH
rain 1hr
in
rain 24hr
in
rain mn
in
humidity
%
barometer
mb
20260510214705 57 236 1.0 5.0 0.00 0.03 0.02 84 1010.6
20260510214212 57 243 2.0 5.0 0.00 0.04 0.02 84 1010.8
20260510213708 57 208 2.0 5.0 0.01 0.04 0.02 84 1010.6
20260510213215 57 187 1.0 7.0 0.01 0.05 0.02 85 1010.5
20260510212213 57 340 2.0 9.0 0.01 0.06 0.02 84 1010.6
20260510211719 57 286 2.0 9.0 0.01 0.06 0.02 84 1010.5
20260510211213 57 281 3.0 9.0 0.01 0.06 0.02 84 1010.3
20260510210706 58 305 3.0 12.0 0.01 0.06 0.02 84 1010.2
20260510205711 58 344 7.0 15.0 0.01 0.08 0.02 84 1010.2
20260510204710 59 300 7.0 15.0 0.01 0.09 0.02 84 1010.2
20260510204215 60 289 4.0 11.0 0.01 0.09 0.02 85 1010.4
20260510203705 61 322 5.0 7.0 0.00 0.09 0.01 86 1010.4
20260510203214 61 278 4.0 7.0 0.00 0.09 0.01 88 1010.3
20260510202210 61 270 1.0 6.0 0.00 0.09 0.01 88 1010.1
20260510200712 61 0 0.0 0.0 0.00 0.09 0.01 88 1009.8
20260510200218 61 0 0.0 0.0 0.00 0.09 0.01 88 1009.6
20260510195710 61 0 0.0 0.0 0.00 0.09 0.01 87 1009.6
20260510195206 61 0 0.0 0.0 0.00 0.09 0.01 87 1009.4
20260510194716 61 0 0.0 0.0 0.00 0.09 0.01 86 1009.4
20260510194206 61 0 0.0 0.0 0.00 0.09 0.01 86 1009.3
20260510193215 62 0 0.0 6.0 0.00 0.09 0.01 85 1009.4
20260510192705 62 345 0.0 6.0 0.00 0.09 0.01 84 1009.3
20260510192207 62 327 2.0 5.0 0.01 0.09 0.01 84 1009.2
20260510191714 62 340 2.0 6.0 0.01 0.09 0.01 84 1009.3
20260510191209 62 323 2.0 6.0 0.01 0.09 0.01 84 1009.3
20260510190708 62 288 3.0 3.0 0.01 0.09 0.01 84 1009.0
20260510190205 62 306 0.0 4.0 0.01 0.09 0.01 84 1009.0
20260510185716 62 143 1.0 5.0 0.01 0.09 0.01 85 1009.0
20260510184712 62 49 2.0 7.0 0.01 0.09 0.01 83 1008.6
20260510184210 62 136 3.0 9.0 0.01 0.09 0.01 82 1008.5
20260510183711 63 157 3.0 9.0 0.01 0.09 0.01 81 1008.1
20260510183215 63 18 5.0 11.0 0.01 0.09 0.01 80 1007.8
20260510182706 64 63 6.0 11.0 0.01 0.09 0.01 79 1008.0
20260510182217 64 36 6.0 12.0 0.00 0.08 0.00 78 1008.2
20260510180711 65 36 5.0 14.0 0.00 0.08 0.00 74 1008.6
20260510180219 65 33 7.0 15.0 0.00 0.08 0.00 74 1008.4
20260510175718 65 39 8.0 15.0 0.00 0.08 0.00 73 1008.1
20260510175213 65 5 8.0 14.0 0.00 0.08 0.00 73 1007.9
20260510174710 65 28 7.0 14.0 0.00 0.08 0.00 71 1007.8
20260510174210 65 358 8.0 14.0 0.00 0.08 0.00 71 1007.8
20260510173706 66 36 8.0 13.0 0.00 0.08 0.00 71 1007.7
20260510173212 66 12 7.0 13.0 0.00 0.08 0.00 71 1007.6
20260510172718 66 35 8.0 11.0 0.00 0.08 0.00 69 1007.6
20260510172216 66 63 6.0 11.0 0.00 0.08 0.00 69 1007.4
20260510171214 67 32 7.0 14.0 0.00 0.08 0.00 68 1007.2
20260510170709 67 28 7.0 14.0 0.00 0.08 0.00 68 1007.2
20260510170212 67 68 9.0 12.0 0.00 0.08 0.00 67 1007.2
20260510165214 68 60 8.0 16.0 0.00 0.08 0.00 66 1007.1
20260510164717 69 53 7.0 17.0 0.00 0.08 0.00 66 1007.0
20260510163705 69 12 9.0 18.0 0.00 0.08 0.00 65 1007.0
20260510163218 70 61 10.0 18.0 0.00 0.08 0.00 64 1007.1
20260510162713 70 46 10.0 18.0 0.00 0.08 0.00 64 1007.2
20260510161710 70 19 8.0 16.0 0.00 0.08 0.00 62 1007.1
20260510161204 70 40 9.0 16.0 0.00 0.08 0.00 62 1007.1
20260510160716 71 40 9.0 15.0 0.00 0.08 0.00 62 1007.1
20260510160214 71 26 9.0 15.0 0.00 0.08 0.00 62 1007.2
20260510155719 70 78 9.0 14.0 0.00 0.08 0.00 62 1007.3
20260510155218 70 53 8.0 14.0 0.00 0.08 0.00 60 1007.3
20260510154719 71 57 9.0 14.0 0.00 0.08 0.00 59 1007.3
20260510154212 71 59 7.0 14.0 0.00 0.08 0.00 59 1007.2
20260510153712 72 67 7.0 13.0 0.00 0.08 0.00 59 1007.2
20260510153212 72 63 6.0 13.0 0.00 0.08 0.00 58 1007.4
20260510152704 72 64 8.0 13.0 0.00 0.08 0.00 58 1007.5
20260510152211 72 52 6.0 17.0 0.00 0.08 0.00 59 1007.5
20260510151710 72 57 6.0 17.0 0.00 0.08 0.00 58 1007.6
20260510151206 71 28 9.0 16.0 0.00 0.08 0.00 59 1007.7
20260510150710 71 23 7.0 17.0 0.00 0.08 0.00 59 1007.7
20260510145717 71 37 10.0 20.0 0.00 0.08 0.00 58 1007.9
20260510145207 71 52 9.0 20.0 0.00 0.08 0.00 59 1007.9
20260510144707 71 40 10.0 17.0 0.00 0.08 0.00 59 1007.8
20260510144206 71 15 9.0 17.0 0.00 0.08 0.00 60 1007.9
20260510143208 71 33 9.0 20.0 0.00 0.08 0.00 60 1007.6
20260510142715 70 33 10.0 19.0 0.00 0.08 0.00 60 1007.8
20260510142208 71 53 11.0 17.0 0.00 0.08 0.00 61 1007.7
20260510141740 70 54 10.0 17.0 0.00 0.08 0.00 62 1007.8
20260510141206 70 42 7.0 17.0 0.00 0.08 0.00 61 1007.9
20260510140706 70 50 11.0 17.0 0.00 0.08 0.00 62 1008.1
20260510140217 70 30 8.0 17.0 0.00 0.08 0.00 61 1008.3
20260510135213 71 67 8.0 20.0 0.00 0.08 0.00 61 1008.4
20260510133712 71 57 8.0 19.0 0.00 0.08 0.00 59 1008.5
20260510133210 71 70 9.0 19.0 0.00 0.08 0.00 60 1008.4
20260510132715 71 119 6.0 19.0 0.00 0.08 0.00 60 1008.4
20260510132210 71 63 11.0 17.0 0.00 0.08 0.00 61 1008.6
20260510131706 71 46 9.0 17.0 0.00 0.08 0.00 62 1008.6
20260510131217 71 54 10.0 17.0 0.00 0.08 0.00 61 1008.6
20260510130719 71 46 10.0 17.0 0.00 0.08 0.00 61 1008.6
20260510130205 71 67 8.0 17.0 0.00 0.08 0.00 60 1008.6
20260510125213 71 30 8.0 16.0 0.00 0.08 0.00 61 1008.6
20260510124706 72 18 9.0 17.0 0.00 0.08 0.00 60 1008.6
20260510124215 71 67 6.0 17.0 0.00 0.08 0.00 61 1008.6
20260510123708 71 73 9.0 17.0 0.00 0.08 0.00 61 1008.6
20260510123213 72 32 10.0 13.0 0.00 0.08 0.00 62 1008.7
20260510122711 71 95 8.0 15.0 0.00 0.08 0.00 62 1008.9
20260510122215 72 78 6.0 15.0 0.00 0.08 0.00 60 1008.8
20260510121709 72 12 7.0 15.0 0.00 0.08 0.00 60 1008.8
20260510121208 72 14 8.0 14.0 0.00 0.08 0.00 58 1008.9
20260510120713 72 73 8.0 14.0 0.00 0.08 0.00 62 1009.0
20260510120213 72 64 7.0 14.0 0.00 0.08 0.00 61 1009.0
20260510115718 72 109 5.0 14.0 0.00 0.08 0.00 58 1009.2
20260510115217 72 64 7.0 15.0 0.00 0.08 0.00 59 1009.1
20260510114711 71 64 7.0 15.0 0.00 0.08 0.00 59 1009.2
20260510114212 71 39 8.0 17.0 0.00 0.08 0.00 61 1009.3
20260510113209 70 22 8.0 17.0 0.00 0.08 0.00 62 1009.5
20260510112708 70 30 9.0 14.0 0.00 0.08 0.00 62 1009.6
20260510112219 70 74 8.0 14.0 0.00 0.08 0.00 62 1009.6
20260510111706 70 355 9.0 14.0 0.00 0.08 0.00 61 1009.7
20260510111206 70 43 7.0 14.0 0.00 0.08 0.00 62 1009.7
20260510110713 70 47 9.0 14.0 0.00 0.08 0.00 62 1009.7
20260510110206 70 28 7.0 14.0 0.00 0.08 0.00 62 1009.8
20260510105715 70 32 8.0 14.0 0.00 0.08 0.00 63 1009.8
20260510105207 69 23 8.0 15.0 0.00 0.08 0.00 64 1009.8
20260510103716 69 61 9.0 15.0 0.00 0.08 0.00 64 1009.9
20260510103206 68 25 8.0 16.0 0.00 0.08 0.00 65 1010.0
20260510102214 68 11 9.0 16.0 0.00 0.08 0.00 67 1009.9
20260510101712 67 36 9.0 14.0 0.00 0.08 0.00 65 1009.9
20260510101214 68 54 6.0 14.0 0.00 0.08 0.00 66 1009.9
20260510100708 68 57 6.0 13.0 0.00 0.08 0.00 65 1010.0
20260510100219 68 19 6.0 13.0 0.00 0.08 0.00 66 1010.0
20260510095713 68 2 8.0 13.0 0.00 0.08 0.00 67 1010.0
20260510095217 67 56 8.0 13.0 0.00 0.08 0.00 66 1010.0
20260510094710 68 26 6.0 13.0 0.00 0.08 0.00 66 1009.9
20260510094211 68 42 6.0 15.0 0.00 0.08 0.00 67 1009.9
20260510093709 67 14 8.0 15.0 0.00 0.08 0.00 68 1009.9
20260510093212 67 16 8.0 15.0 0.00 0.08 0.00 69 1009.8
20260510092706 66 53 7.0 12.0 0.00 0.08 0.00 69 1009.9
20260510092213 66 2 7.0 12.0 0.00 0.08 0.00 68 1009.9
20260510091711 66 53 4.0 11.0 0.00 0.08 0.00 68 1009.9
20260510091218 67 28 6.0 13.0 0.00 0.08 0.00 68 1009.9
20260510090716 66 7 2.0 13.0 0.00 0.08 0.00 70 1009.9
20260510090234 66 23 5.0 6.0 0.00 0.08 0.00 69 1009.9
20260510085711 66 119 2.0 6.0 0.00 0.08 0.00 73 1009.9
20260510085214 65 163 2.0 6.0 0.00 0.08 0.00 73 1009.8
20260510084712 65 154 1.0 6.0 0.00 0.08 0.00 73 1009.8
20260510084208 65 154 3.0 6.0 0.00 0.08 0.00 75 1009.8
20260510083719 64 142 1.0 6.0 0.00 0.08 0.00 76 1009.7
20260510083208 64 165 2.0 6.0 0.00 0.08 0.00 75 1009.9
20260510082707 64 170 3.0 6.0 0.00 0.08 0.00 76 1009.9
20260510082211 64 153 2.0 9.0 0.00 0.08 0.00 76 1009.9
20260510081705 64 71 1.0 9.0 0.00 0.08 0.00 77 1010.0
20260510081218 63 22 1.0 3.0 0.00 0.08 0.00 78 1009.9
20260510080717 63 344 0.0 3.0 0.00 0.08 0.00 80 1009.8
20260510075714 62 0 0.0 0.0 0.00 0.08 0.00 80 1010.0
20260510075212 62 0 0.0 0.0 0.00 0.08 0.00 81 1010.0
20260510074719 62 0 0.0 0.0 0.00 0.08 0.00 80 1009.9
20260510073719 61 0 0.0 0.0 0.00 0.08 0.00 83 1009.9
20260510073216 61 0 0.0 0.0 0.00 0.08 0.00 85 1010.0
20260510072706 60 0 0.0 0.0 0.00 0.08 0.00 86 1010.0
20260510072206 60 0 0.0 0.0 0.00 0.08 0.00 86 1010.0
20260510071713 59 0 0.0 0.0 0.00 0.08 0.00 88 1010.1
20260510071210 58 0 0.0 0.0 0.00 0.08 0.00 89 1010.1
20260510070714 58 0 0.0 3.0 0.00 0.08 0.00 91 1009.9
20260510065711 56 216 0.0 3.0 0.00 0.08 0.00 92 1010.0
20260510065216 56 210 0.0 0.0 0.00 0.08 0.00 92 1009.9
20260510064710 56 0 0.0 1.0 0.00 0.08 0.00 92 1009.9
20260510064216 55 0 0.0 1.0 0.00 0.08 0.00 93 1009.9
20260510063712 55 146 0.0 0.0 0.00 0.08 0.00 93 1010.0
20260510063208 55 0 0.0 1.0 0.00 0.08 0.00 94 1010.0
20260510062714 54 0 0.0 1.0 0.00 0.08 0.00 94 1010.0
20260510062214 54 146 0.0 1.0 0.00 0.08 0.00 94 1010.1
20260510061712 54 0 0.0 1.0 0.00 0.08 0.00 94 1010.1
20260510060706 54 120 0.0 2.0 0.00 0.08 0.00 94 1010.1
20260510060238 54 0 0.0 2.0 0.00 0.08 0.00 95 1009.9
20260510055707 53 164 0.0 2.0 0.00 0.08 0.00 96 1010.1
20260510055211 53 118 1.0 2.0 0.00 0.08 0.00 95 1010.2
20260510054713 53 0 0.0 0.0 0.00 0.08 0.00 95 1010.1
20260510054220 53 0 0.0 2.0 0.00 0.08 0.00 96 1010.2
20260510053715 52 0 0.0 2.0 0.00 0.08 0.00 96 1010.1
20260510052708 51 150 1.0 0.0 0.00 0.08 0.00 96 1010.1
20260510052206 51 0 0.0 0.0 0.00 0.08 0.00 95 1010.1
20260510051211 51 0 0.0 2.0 0.00 0.08 0.00 95 1010.1
20260510050705 51 164 0.0 2.0 0.00 0.08 0.00 95 1010.1
20260510050211 50 165 0.0 0.0 0.00 0.08 0.00 95 1010.0
20260510044717 51 0 0.0 0.0 0.00 0.08 0.00 95 1010.1
20260510044219 51 0 0.0 2.0 0.00 0.08 0.00 95 1010.1
20260510043209 51 215 1.0 2.0 0.00 0.08 0.00 95 1010.1
20260510042720 51 217 0.0 0.0 0.00 0.08 0.00 95 1010.2
20260510042215 51 0 0.0 0.0 0.00 0.08 0.00 95 1010.2
20260510041717 51 0 0.0 1.0 0.00 0.08 0.00 95 1010.2
20260510040705 51 104 0.0 2.0 0.00 0.08 0.00 94 1010.3
20260510040212 52 126 0.0 3.0 0.00 0.08 0.00 94 1010.4
20260510035716 52 172 2.0 3.0 0.00 0.08 0.00 95 1010.4
20260510035215 52 153 0.0 3.0 0.00 0.08 0.00 95 1010.4
20260510034719 52 209 0.0 3.0 0.00 0.08 0.00 95 1010.4
20260510033709 52 187 1.0 2.0 0.00 0.08 0.00 95 1010.5
20260510032713 52 310 0.0 2.0 0.00 0.08 0.00 94 1010.4
20260510032216 53 11 1.0 2.0 0.00 0.08 0.00 94 1010.4
20260510031714 53 348 0.0 2.0 0.00 0.08 0.00 94 1010.4
20260510031207 53 277 0.0 2.0 0.00 0.08 0.00 94 1010.5
20260510030711 53 163 0.0 2.0 0.00 0.08 0.00 94 1010.5
20260510025707 53 0 0.0 2.0 0.00 0.08 0.00 94 1010.6
20260510025205 53 236 0.0 2.0 0.00 0.08 0.00 94 1010.6
20260510024710 53 244 0.0 3.0 0.00 0.08 0.00 94 1010.7
20260510024214 53 219 1.0 3.0 0.00 0.08 0.00 94 1010.6
20260510023214 54 187 0.0 5.0 0.00 0.08 0.00 93 1010.6
20260510022207 54 43 2.0 4.0 0.00 0.08 0.00 93 1010.5
20260510021712 54 57 2.0 6.0 0.00 0.08 0.00 93 1010.5
20260510021219 55 358 3.0 6.0 0.00 0.08 0.00 94 1010.5
20260510020719 55 22 3.0 4.0 0.00 0.08 0.00 94 1010.4
20260510020212 55 45 1.0 4.0 0.00 0.08 0.00 93 1010.5
20260510015218 55 355 0.0 0.0 0.00 0.08 0.00 93 1010.6
20260510014714 55 0 0.0 2.0 0.00 0.08 0.00 93 1010.7
20260510013709 55 341 0.0 2.0 0.00 0.08 0.00 93 1010.9
20260510013208 55 0 0.0 1.0 0.00 0.08 0.00 93 1011.0
20260510012714 55 260 0.0 1.0 0.00 0.08 0.00 93 1011.1
20260510011705 55 0 0.0 4.0 0.00 0.08 0.00 93 1011.2
20260510011210 55 355 1.0 5.0 0.00 0.08 0.00 93 1011.2
20260510010737 56 21 2.0 6.0 0.00 0.08 0.00 93 1011.1
20260510010214 56 22 3.0 7.0 0.00 0.08 0.00 93 1011.1
20260510005208 56 21 5.0 7.0 0.00 0.08 0.00 93 1011.0
20260510004213 56 347 2.0 5.0 0.00 0.08 0.00 93 1011.2
20260510003714 56 8 3.0 5.0 0.00 0.08 0.00 93 1011.3
20260510003206 56 358 2.0 5.0 0.00 0.08 0.00 93 1011.4
20260510002711 56 29 3.0 7.0 0.00 0.08 0.00 93 1011.3
20260510002220 56 25 3.0 7.0 0.00 0.08 0.00 92 1011.3
20260510001710 56 39 4.0 8.0 0.00 0.08 0.00 92 1011.2
20260510000713 56 39 4.0 9.0 0.00 0.08 0.00 92 1011.1
20260510000215 56 60 4.0 9.0 0.00 0.08 0.00 92 1011.2
20260509235208 56 37 5.0 9.0 0.00 0.08 0.00 93 1011.1
20260509234718 56 39 5.0 9.0 0.00 0.08 0.00 93 1011.3
20260509234210 56 7 5.0 9.0 0.00 0.08 0.00 93 1011.4
20260509233711 56 47 6.0 10.0 0.00 0.08 0.00 93 1011.5
20260509232719 56 22 7.0 11.0 0.00 0.08 0.00 93 1012.0
20260509232207 56 19 7.0 11.0 0.00 0.08 0.00 93 1012.0
20260509231706 56 28 7.0 11.0 0.00 0.08 0.00 93 1011.9
20260509231218 56 9 7.0 10.0 0.00 0.08 0.00 93 1012.0
20260509230710 57 28 6.0 10.0 0.00 0.08 0.00 93 1012.2
20260509230209 57 23 7.0 10.0 0.00 0.08 0.00 93 1012.3
20260509225708 57 22 5.0 10.0 0.01 0.08 0.00 93 1012.2
20260509225209 57 45 4.0 10.0 0.01 0.08 0.00 93 1012.2
20260509224706 57 30 6.0 9.0 0.02 0.08 0.00 93 1012.2
20260509224211 57 5 5.0 10.0 0.02 0.08 0.00 93 1012.2
20260509223717 57 43 5.0 10.0 0.02 0.08 0.00 93 1012.1
20260509223215 57 23 6.0 9.0 0.03 0.08 0.00 93 1012.0
20260509222716 57 18 6.0 9.0 0.04 0.08 0.00 93 1012.0
20260509222207 57 19 5.0 8.0 0.04 0.08 0.00 93 1012.0
20260509221709 57 29 5.0 8.0 0.05 0.08 0.00 93 1012.0
20260509221206 57 2 6.0 8.0 0.05 0.08 0.00 93 1012.2
20260509220718 57 9 5.0 7.0 0.05 0.08 0.00 93 1012.0
20260509215719 58 25 4.0 9.0 0.06 0.07 0.07 92 1012.0
20260509215215 58 15 6.0 9.0 0.06 0.07 0.07 92 1012.1